Powrót do katalogu

FENGYUN 1C DEB

AktywnyUNKNOWN
NORAD 29748·DEBRIS·🇨🇳 China

Wystrzelony May 10, 1999 z Taiyuan Satellite Launch Center

Loading…

Następne Przeloty (najbliższe 24 godziny)

TLE

ŚwieżeSource: Space-Track

Epoka: Sep 6, 2026, 14:01 UTC

1 29748U 99025AN  26249.58438499 -.00007929  00000-0 -61405-1 0  9994
2 29748 100.0622 118.3676 0625921 247.4200 105.9478 11.92855926819245

Śledź FENGYUN 1C DEB w czasie rzeczywistym z AllMySat

Download on the App Store